Time,TemperatureF,DewpointF,PressureIn,WindDirection,WindDirectionDegrees,WindSpeedMPH,WindSpeedGustMPH,Humidity,HourlyPrecipIn,Conditions,Clouds,dailyrainin,SoftwareType,DateUTC
2013-02-22 00:05:00,28.8,28.0,29.89,ESE,117,1.0,5.0,96,0.00,,,0.00,weatherlink.com 1.10,2013-02-22 06:05:00,
2013-02-22 00:22:00,28.9,28.0,29.88,ESE,118,1.0,3.0,96,0.00,,,0.00,weatherlink.com 1.10,2013-02-22 06:22:00,
2013-02-22 00:35:00,29.1,28.0,29.88,SSE,153,2.0,4.0,97,0.00,,,0.00,weatherlink.com 1.10,2013-02-22 06:35:00,
2013-02-22 00:50:00,29.2,28.0,29.88,ESE,117,1.0,4.0,96,0.00,,,0.00,weatherlink.com 1.10,2013-02-22 06:50:00,
2013-02-22 01:05:00,29.3,29.0,29.87,ESE,122,0.0,3.0,97,0.00,,,0.00,weatherlink.com 1.10,2013-02-22 07:05:00,
2013-02-22 01:20:00,29.4,29.0,29.87,ESE,113,1.0,3.0,97,0.00,,,0.00,weatherlink.com 1.10,2013-02-22 07:20:00,
2013-02-22 01:35:00,29.5,29.0,29.87,ESE,117,0.0,3.0,97,0.00,,,0.00,weatherlink.com 1.10,2013-02-22 07:35:00,
2013-02-22 01:50:00,29.6,29.0,29.86,SSE,154,1.0,2.0,97,0.00,,,0.00,weatherlink.com 1.10,2013-02-22 07:50:00,
2013-02-22 02:05:00,29.7,29.0,29.85,East,96,2.0,4.0,97,0.00,,,0.00,weatherlink.com 1.10,2013-02-22 08:05:00,
2013-02-22 02:20:00,30.1,29.0,29.85,SSE,154,0.0,2.0,97,0.00,,,0.00,weatherlink.com 1.10,2013-02-22 08:20:00,
2013-02-22 02:35:00,30.1,29.0,29.85,SE,126,1.0,3.0,97,0.00,,,0.00,weatherlink.com 1.10,2013-02-22 08:35:00,
2013-02-22 02:50:00,30.3,30.0,29.85,SSE,168,0.0,3.0,97,0.00,,,0.00,weatherlink.com 1.10,2013-02-22 08:50:00,
2013-02-22 03:05:00,30.6,30.0,29.84,SE,137,1.0,5.0,97,0.00,,,0.00,weatherlink.com 1.10,2013-02-22 09:05:00,
2013-02-22 03:20:00,30.4,30.0,29.84,SSE,150,2.0,4.0,97,0.00,,,0.00,weatherlink.com 1.10,2013-02-22 09:20:00,
2013-02-22 03:35:00,30.5,30.0,29.83,SSE,150,1.0,4.0,97,0.00,,,0.00,weatherlink.com 1.10,2013-02-22 09:35:00,
2013-02-22 03:50:00,30.8,30.0,29.83,SSE,164,3.0,4.0,97,0.00,,,0.00,weatherlink.com 1.10,2013-02-22 09:50:00,
2013-02-22 04:05:00,30.7,30.0,29.82,SSE,161,1.0,5.0,97,0.00,,,0.00,weatherlink.com 1.10,2013-02-22 10:05:00,
2013-02-22 04:20:00,30.6,30.0,29.82,SSE,148,1.0,4.0,97,0.00,,,0.00,weatherlink.com 1.10,2013-02-22 10:20:00,
2013-02-22 04:35:00,30.6,30.0,29.82,SSE,163,1.0,4.0,97,0.00,,,0.00,weatherlink.com 1.10,2013-02-22 10:35:00,
2013-02-22 04:50:00,30.7,30.0,29.82,SSE,165,2.0,3.0,97,0.00,,,0.00,weatherlink.com 1.10,2013-02-22 10:50:00,
2013-02-22 05:05:00,30.6,30.0,29.82,SSE,159,3.0,5.0,97,0.00,,,0.00,weatherlink.com 1.10,2013-02-22 11:05:00,
2013-02-22 05:21:00,30.5,30.0,29.82,SSE,162,5.0,5.0,97,0.00,,,0.00,weatherlink.com 1.10,2013-02-22 11:21:00,
2013-02-22 05:36:00,30.9,30.0,29.82,SE,144,2.0,5.0,97,0.00,,,0.00,weatherlink.com 1.10,2013-02-22 11:36:00,
2013-02-22 05:51:00,30.6,30.0,29.82,SSE,149,1.0,4.0,97,0.00,,,0.00,weatherlink.com 1.10,2013-02-22 11:51:00,
2013-02-22 06:06:00,30.6,30.0,29.83,SSE,153,2.0,6.0,97,0.00,,,0.00,weatherlink.com 1.10,2013-02-22 12:06:00,
2013-02-22 06:21:00,30.7,30.0,29.83,South,181,3.0,5.0,97,0.00,,,0.00,weatherlink.com 1.10,2013-02-22 12:21:00,
2013-02-22 06:37:00,30.6,30.0,29.83,SW,223,4.0,5.0,97,0.00,,,0.00,weatherlink.com 1.10,2013-02-22 12:37:00,
2013-02-22 06:51:00,30.7,30.0,29.83,South,178,2.0,6.0,97,0.00,,,0.00,weatherlink.com 1.10,2013-02-22 12:51:00,
2013-02-22 07:06:00,30.7,30.0,29.83,SSE,162,2.0,5.0,97,0.00,,,0.00,weatherlink.com 1.10,2013-02-22 13:06:00,
2013-02-22 07:21:00,30.9,30.0,29.83,SSW,194,3.0,5.0,97,0.00,,,0.00,weatherlink.com 1.10,2013-02-22 13:21:00,
2013-02-22 07:36:00,30.9,30.0,29.84,SW,219,6.0,6.0,97,0.00,,,0.00,weatherlink.com 1.10,2013-02-22 13:36:00,
2013-02-22 07:51:00,31.0,30.0,29.85,SW,217,3.0,7.0,97,0.00,,,0.00,weatherlink.com 1.10,2013-02-22 13:51:00,
2013-02-22 08:06:00,31.1,30.0,29.87,West,271,3.0,8.0,97,0.00,,,0.00,weatherlink.com 1.10,2013-02-22 14:06:00,
2013-02-22 08:21:00,31.3,31.0,29.87,WSW,238,2.0,6.0,97,0.00,,,0.00,weatherlink.com 1.10,2013-02-22 14:21:00,
2013-02-22 08:36:00,31.4,31.0,29.88,WSW,239,1.0,8.0,97,0.00,,,0.00,weatherlink.com 1.10,2013-02-22 14:36:00,
2013-02-22 08:51:00,31.4,30.0,29.88,SW,230,4.0,10.0,96,0.00,,,0.00,weatherlink.com 1.10,2013-02-22 14:51:00,
2013-02-22 09:06:00,31.3,30.0,29.89,SW,224,3.0,9.0,96,0.00,,,0.00,weatherlink.com 1.10,2013-02-22 15:06:00,
2013-02-22 09:21:00,31.2,30.0,29.89,WSW,254,2.0,10.0,95,0.00,,,0.00,weatherlink.com 1.10,2013-02-22 15:21:00,
2013-02-22 09:36:00,30.7,30.0,29.90,WSW,254,8.0,10.0,95,0.00,,,0.00,weatherlink.com 1.10,2013-02-22 15:36:00,
2013-02-22 09:51:00,30.6,29.0,29.90,WSW,250,6.0,11.0,94,0.00,,,0.00,weatherlink.com 1.10,2013-02-22 15:51:00,
2013-02-22 10:06:00,30.8,29.0,29.91,West,278,5.0,10.0,93,0.00,,,0.00,weatherlink.com 1.10,2013-02-22 16:06:00,
2013-02-22 10:21:00,30.9,29.0,29.91,WSW,244,1.0,9.0,92,0.00,,,0.00,weatherlink.com 1.10,2013-02-22 16:21:00,
2013-02-22 10:36:00,30.5,29.0,29.92,WSW,255,2.0,11.0,92,0.00,,,0.00,weatherlink.com 1.10,2013-02-22 16:36:00,
2013-02-22 10:51:00,30.0,28.0,29.93,West,265,4.0,13.0,91,0.00,,,0.00,weatherlink.com 1.10,2013-02-22 16:51:00,
2013-02-22 11:06:00,29.9,27.0,29.92,SW,234,3.0,11.0,90,0.00,,,0.00,weatherlink.com 1.10,2013-02-22 17:06:00,
2013-02-22 11:21:00,31.2,28.0,29.93,WSW,257,8.0,12.0,89,0.00,,,0.00,weatherlink.com 1.10,2013-02-22 17:21:00,
2013-02-22 11:36:00,31.8,29.0,29.93,West,261,6.0,12.0,88,0.02,,,0.02,weatherlink.com 1.10,2013-02-22 17:36:00,
2013-02-22 11:51:00,31.4,28.0,29.93,SSW,211,9.0,19.0,87,0.04,,,0.04,weatherlink.com 1.10,2013-02-22 17:51:00,
2013-02-22 12:06:00,31.0,28.0,29.93,West,266,8.0,16.0,88,0.06,,,0.06,weatherlink.com 1.10,2013-02-22 18:06:00,
2013-02-22 12:21:00,30.8,28.0,29.93,West,264,9.0,18.0,88,0.06,,,0.06,weatherlink.com 1.10,2013-02-22 18:21:00,
2013-02-22 12:36:00,30.4,27.0,29.94,WSW,249,8.0,16.0,87,0.05,,,0.07,weatherlink.com 1.10,2013-02-22 18:36:00,
2013-02-22 12:51:00,30.0,27.0,29.94,West,273,6.0,16.0,87,0.04,,,0.08,weatherlink.com 1.10,2013-02-22 18:51:00,
2013-02-22 13:06:00,30.2,27.0,29.95,West,262,5.0,16.0,87,0.03,,,0.09,weatherlink.com 1.10,2013-02-22 19:06:00,
2013-02-22 13:21:00,30.1,26.0,29.95,WSW,249,6.0,20.0,85,0.04,,,0.10,weatherlink.com 1.10,2013-02-22 19:21:00,
2013-02-22 13:36:00,29.7,26.0,29.95,West,266,4.0,19.0,85,0.03,,,0.10,weatherlink.com 1.10,2013-02-22 19:36:00,
2013-02-22 13:51:00,29.2,25.0,29.96,SW,229,4.0,20.0,85,0.03,,,0.11,weatherlink.com 1.10,2013-02-22 19:51:00,
2013-02-22 14:06:00,28.8,25.0,29.96,SW,230,4.0,16.0,85,0.03,,,0.12,weatherlink.com 1.10,2013-02-22 20:06:00,
2013-02-22 14:21:00,28.7,25.0,29.96,West,269,8.0,18.0,85,0.02,,,0.12,weatherlink.com 1.10,2013-02-22 20:21:00,
2013-02-22 14:37:00,28.4,24.0,29.96,WSW,250,11.0,16.0,84,0.03,,,0.13,weatherlink.com 1.10,2013-02-22 20:37:00,
2013-02-22 14:52:00,28.4,24.0,29.97,West,274,8.0,17.0,84,0.02,,,0.13,weatherlink.com 1.10,2013-02-22 20:52:00,
2013-02-22 15:07:00,28.3,24.0,29.97,WSW,240,5.0,14.0,84,0.01,,,0.13,weatherlink.com 1.10,2013-02-22 21:07:00,
2013-02-22 15:22:00,28.0,24.0,29.98,West,275,5.0,15.0,84,0.02,,,0.14,weatherlink.com 1.10,2013-02-22 21:22:00,
2013-02-22 15:37:00,27.7,24.0,29.98,WSW,255,4.0,14.0,84,0.01,,,0.14,weatherlink.com 1.10,2013-02-22 21:37:00,
2013-02-22 15:52:00,27.5,23.0,29.99,West,269,8.0,14.0,84,0.01,,,0.14,weatherlink.com 1.10,2013-02-22 21:52:00,
2013-02-22 16:07:00,27.3,23.0,29.99,SW,234,6.0,15.0,83,0.01,,,0.14,weatherlink.com 1.10,2013-02-22 22:07:00,
2013-02-22 16:22:00,27.2,23.0,29.99,West,265,6.0,14.0,83,0.00,,,0.14,weatherlink.com 1.10,2013-02-22 22:22:00,
2013-02-22 16:37:00,27.2,23.0,29.99,SW,218,4.0,16.0,83,0.00,,,0.14,weatherlink.com 1.10,2013-02-22 22:37:00,
2013-02-22 16:52:00,27.3,23.0,30.00,West,265,4.0,15.0,83,0.00,,,0.14,weatherlink.com 1.10,2013-02-22 22:52:00,
2013-02-22 17:07:00,27.2,23.0,30.00,WSW,253,3.0,13.0,83,0.00,,,0.14,weatherlink.com 1.10,2013-02-22 23:07:00,
2013-02-22 17:22:00,27.2,23.0,30.00,WSW,257,6.0,11.0,84,0.00,,,0.14,weatherlink.com 1.10,2013-02-22 23:22:00,
2013-02-22 17:37:00,27.1,23.0,30.01,West,259,7.0,10.0,84,0.00,,,0.14,weatherlink.com 1.10,2013-02-22 23:37:00,
2013-02-22 17:52:00,27.2,23.0,30.02,SW,234,7.0,9.0,84,0.00,,,0.14,weatherlink.com 1.10,2013-02-22 23:52:00,
2013-02-22 18:07:00,27.1,23.0,30.02,WSW,250,8.0,10.0,83,0.00,,,0.14,weatherlink.com 1.10,2013-02-23 00:07:00,
2013-02-22 18:22:00,27.1,23.0,30.02,WSW,250,5.0,8.0,83,0.00,,,0.14,weatherlink.com 1.10,2013-02-23 00:22:00,
2013-02-22 18:37:00,27.0,23.0,30.03,SW,226,3.0,7.0,84,0.00,,,0.14,weatherlink.com 1.10,2013-02-23 00:37:00,
2013-02-22 18:52:00,26.9,23.0,30.04,SW,215,3.0,9.0,84,0.00,,,0.14,weatherlink.com 1.10,2013-02-23 00:52:00,
2013-02-22 19:07:00,26.9,23.0,30.04,WSW,245,4.0,7.0,84,0.00,,,0.14,weatherlink.com 1.10,2013-02-23 01:07:00,
2013-02-22 19:22:00,26.9,22.0,30.04,WSW,256,2.0,10.0,83,0.00,,,0.14,weatherlink.com 1.10,2013-02-23 01:22:00,
2013-02-22 19:37:00,26.8,23.0,30.04,WSW,252,3.0,7.0,84,0.00,,,0.14,weatherlink.com 1.10,2013-02-23 01:37:00,
2013-02-22 19:52:00,26.7,23.0,30.04,West,260,3.0,6.0,84,0.00,,,0.14,weatherlink.com 1.10,2013-02-23 01:52:00,
2013-02-22 20:07:00,26.7,22.0,30.05,West,261,2.0,8.0,83,0.00,,,0.14,weatherlink.com 1.10,2013-02-23 02:07:00,
2013-02-22 20:22:00,26.6,22.0,30.05,WSW,258,5.0,7.0,83,0.00,,,0.14,weatherlink.com 1.10,2013-02-23 02:22:00,
2013-02-22 20:37:00,26.6,22.0,30.05,West,262,5.0,8.0,83,0.00,,,0.14,weatherlink.com 1.10,2013-02-23 02:37:00,
2013-02-22 20:52:00,26.5,22.0,30.05,West,261,7.0,10.0,82,0.00,,,0.14,weatherlink.com 1.10,2013-02-23 02:52:00,
2013-02-22 21:07:00,26.5,22.0,30.05,WSW,253,4.0,12.0,82,0.00,,,0.14,weatherlink.com 1.10,2013-02-23 03:07:00,
2013-02-22 21:22:00,26.3,22.0,30.05,West,264,5.0,9.0,82,0.00,,,0.14,weatherlink.com 1.10,2013-02-23 03:22:00,
2013-02-22 21:37:00,26.3,22.0,30.05,West,272,4.0,9.0,82,0.00,,,0.14,weatherlink.com 1.10,2013-02-23 03:37:00,
2013-02-22 21:52:00,26.2,21.0,30.05,WSW,245,2.0,8.0,82,0.00,,,0.14,weatherlink.com 1.10,2013-02-23 03:52:00,
2013-02-22 22:07:00,26.0,21.0,30.05,West,262,1.0,8.0,82,0.00,,,0.14,weatherlink.com 1.10,2013-02-23 04:07:00,
2013-02-22 22:22:00,25.9,21.0,30.06,WSW,252,2.0,10.0,82,0.00,,,0.14,weatherlink.com 1.10,2013-02-23 04:22:00,
2013-02-22 22:37:00,25.5,21.0,30.05,WSW,256,4.0,8.0,82,0.00,,,0.14,weatherlink.com 1.10,2013-02-23 04:37:00,
2013-02-22 22:52:00,24.7,20.0,30.05,West,266,4.0,7.0,82,0.00,,,0.14,weatherlink.com 1.10,2013-02-23 04:52:00,
2013-02-22 23:07:00,24.3,20.0,30.05,West,273,6.0,7.0,82,0.00,,,0.14,weatherlink.com 1.10,2013-02-23 05:07:00,
2013-02-22 23:22:00,23.8,19.0,30.05,WSW,249,3.0,8.0,82,0.00,,,0.14,weatherlink.com 1.10,2013-02-23 05:22:00,
2013-02-22 23:37:00,23.6,19.0,30.05,West,267,5.0,8.0,82,0.00,,,0.14,weatherlink.com 1.10,2013-02-23 05:37:00,
2013-02-22 23:52:00,23.4,19.0,30.05,West,263,3.0,10.0,82,0.00,,,0.14,weatherlink.com 1.10,2013-02-23 05:52:00,